[[{"header":{"parameterUnit":"m.s-1","parameterCategory":1,"la1":30.2991,"la2":30.254,"lo1":-89.0895,"lo2":-89.0444,"dy":0.0017,"dx":0.0017,"nx":28,"ny":28,"refTime":"2023-07-21T03:00:00:Z","depth":0,"parameterNumber":2,"parameterNumberName":"U-component_of_WINDS"},"data":[0,0,0,0,0,0,0,0,0,0,0,0,0,0,0,0,0,0,0,0,0,0,0,0,0,0,0,0,0,0,0,0,0,0,0,0,0,0,0,0,0,0,0,0,0,0,0,0,0,0,0,0,0,0,0,0,0,0,1.0799,1.08,0,1.0921,1.0923,1.0924,1.0968,1.0967,1.0967,1.0967,1.1093,1.1096,1.11,0,0,0,0,0,0,0,0,0,0,0,0,0,1.0604,1.0607,1.0799,1.08,1.0802,1.0921,1.0923,1.0924,1.0968,1.0967,1.0967,1.0966,1.1091,1.1096,1.11,0,0,0,0,0,0,0,0,0,0,0,0,0,1.0704,1.0608,1.0799,1.0838,1.0843,1.0921,1.0923,1.0925,1.0968,1.0967,1.0967,1.0966,1.109,1.1095,1.1101,1.1149,0,0,1.1118,1.1121,0,0,0,0,0,0,0,0,1.0698,1.0711,1.0831,1.0835,1.0841,1.0929,1.09,1.1,1.0968,1.092,1.0967,1.0966,1.1039,1.1048,1.1073,1.1155,1.116,1.1119,1.1122,1.1124,1.1126,0,0,0,0,0,0,0,1.0691,1.0706,1.0847,1.0832,1.0839,1.085,1.0863,1.0919,1.0982,1.0925,1.0928,1.0942,1.1041,1.1067,1.1076,1.1162,1.1118,1.1123,1.1127,1.1129,1.1289,1.129,0,0,0,0,0,0,1.0677,1.07,1.0843,1.0851,1.0766,1.0854,1.0869,1.0901,1.0981,1.0993,1.0942,1.0943,1.1058,1.1069,1.1081,1.1142,1.1124,1.113,1.1133,1.1288,1.1289,1.129,0,0,0,0,0,0,1.0673,1.069,1.0839,1.0776,1.0796,1.0858,1.0894,1.0904,1.093,1.0995,1.1006,1.0957,1.1058,1.1073,1.1131,1.1147,1.1132,1.1137,1.1287,1.1289,1.129,1.1264,0,0,0,0,0,0,1.0667,1.0688,1.0706,1.0776,1.0799,1.0887,1.0895,1.0907,1.0939,1.0942,1.1012,1.1023,1.1058,1.1123,1.1137,1.1154,1.1142,1.1286,1.1288,1.1289,1.1264,1.1264,1.1265,0,0,0,0,0,1.066,1.0695,1.0707,1.0724,1.0824,1.0888,1.0901,1.0941,1.094,1.096,1.1001,1.102,1.1143,1.1128,1.1145,1.1164,1.1285,1.1287,1.1289,1.1264,1.1264,1.1265,0,0,0,0,0,0,1.0625,1.0704,1.0719,1.0777,1.0825,1.0895,1.092,1.094,1.099,1.099,1.1038,1.1054,1.1109,1.1142,1.1125,1.1214,1.1215,1.1221,1.119,1.1191,1.1192,1.1182,1.1146,0,0,0,0,0,1.0624,1.0669,1.0736,1.0781,1.0804,1.0858,1.0887,1.0914,1.0966,1.0987,1.1033,1.1082,1.1132,1.1164,1.1213,1.1269,1.1285,1.1291,1.1291,1.1291,1.1295,1.1327,1.133,1.1297,1.1297,1.1297,0,0,1.0622,1.0671,1.0697,1.0775,1.0815,1.0861,1.0875,1.0923,1.0957,1.0994,1.1052,1.1087,1.1146,1.1204,1.1231,1.1234,1.1308,1.1294,1.1293,1.1297,1.1329,1.1332,1.1335,1.1298,1.1298,1.1298,0,0,1.0642,1.0684,1.0726,1.0766,1.0827,1.0863,1.0873,1.094,1.0964,1.1023,1.1052,1.1094,1.1178,1.1219,1.1251,1.1286,1.1306,1.1301,1.1303,1.1334,1.1337,1.1339,1.1352,1.1355,1.1305,1.1305,1.1305,0,1.0633,1.0702,1.0745,1.0791,1.0825,1.086,1.0903,1.094,1.1014,1.1036,1.1038,1.1145,1.1187,1.1254,1.1263,1.1287,1.13,1.1293,1.1333,1.1336,1.1339,1.1351,1.1356,1.1304,1.1304,1.1304,1.1304,0,1.0687,1.0735,1.0762,1.0832,1.0869,1.0913,1.0962,1.0994,1.1018,1.1054,1.1113,1.1165,1.1225,1.1243,1.1267,1.1314,1.1314,1.1323,1.1325,1.134,1.1353,1.1358,1.1303,1.1303,1.1303,1.1303,0,0,1.0688,1.0781,1.079,1.0823,1.0893,1.0931,1.0977,1.1035,1.1062,1.1112,1.1151,1.1222,1.1232,1.1267,1.1296,1.1323,1.1348,1.133,1.1332,1.1331,1.1402,1.1394,1.1399,1.1361,1.1362,1.1363,1.1397,0,1.0717,1.08,1.084,1.0906,1.0951,1.0985,1.1026,1.1073,1.1107,1.1151,1.1189,1.1238,1.1247,1.1269,1.1297,1.1339,1.1363,1.1337,1.1398,1.14,1.1382,1.1405,1.1397,1.1426,1.1402,1.1403,1.1404,0,1.0761,1.0811,1.0881,1.0946,1.0966,1.1001,1.1059,1.11,1.1154,1.1177,1.1217,1.1245,1.1295,1.1294,1.1363,1.1344,1.1372,1.1396,1.1399,1.1405,1.1402,1.1412,1.1437,1.1441,1.1412,1.1411,1.1411,0,1.0754,1.0839,1.0892,1.0918,1.0995,1.1019,1.1052,1.1106,1.1139,1.1189,1.1211,1.1266,1.1296,1.1338,1.138,1.1376,1.1446,1.1448,1.1466,1.1465,1.1479,1.1477,1.1507,1.1497,1.1497,1.1497,1.1497,0,1.0782,1.0823,1.0889,1.0922,1.0969,1.1015,1.1061,1.1097,1.1144,1.1184,1.1218,1.1255,1.1309,1.1353,1.1386,1.1438,1.1452,1.1472,1.148,1.1468,1.1466,1.1487,1.1486,1.1498,1.1498,1.1498,1.1498,0,1.0781,1.0827,1.0887,1.0955,1.0973,1.1005,1.1064,1.1097,1.1133,1.1183,1.1198,1.1255,1.1308,1.1355,1.1425,1.1448,1.1501,1.1511,1.1482,1.1486,1.1502,1.15,1.1546,1.1555,1.1539,1.1539,1.1539,0,1.0796,1.0828,1.09,1.0929,1.0962,1.1008,1.1042,1.1088,1.1122,1.1187,1.1212,1.1267,1.1314,1.1398,1.1446,1.15,1.1512,1.1524,1.152,1.1507,1.1511,1.1508,1.1512,1.1524,1.1524,1.1524,1.1524,0,1.0816,1.0837,1.0884,1.0939,1.0978,1.1024,1.1071,1.1093,1.1148,1.1184,1.1239,1.1275,1.1347,1.1402,1.1461,1.1496,1.1519,1.1525,1.1532,1.152,1.1501,1.1511,1.1481,1.1523,1.1523,1.1523,1.1523,1.1523,1.0823,1.0854,1.0909,1.096,1.1,1.1043,1.1077,1.1118,1.1164,1.1226,1.1251,1.1307,1.1361,1.1443,1.1477,1.1522,1.1525,1.1536,1.1538,1.154,1.1538,1.1495,1.1533,1.1533,1.1533,1.1533,1.1533,0,1.0845,1.0882,1.0929,1.0993,1.1033,1.1052,1.1104,1.1137,1.1186,1.1234,1.1279,1.1342,1.1396,1.1448,1.1504,1.1529,1.1541,1.1542,1.1541,1.1548,1.1531,1.1519,1.1532,1.1532,1.1532,1.1532,1.1532,1.1532,1.086,1.0913,1.0941,1.1014,1.1051,1.1106,1.1134,1.1174,1.1213,1.1281,1.1326,1.1359,1.1409,1.1469,1.1519,1.1533,1.1552,1.155,1.1567,1.155,1.1549,1.1549,1.1538,1.1554,1.1554,1.158,1.158,1.1581]},{"header":{"parameterUnit":"m.s-1","parameterCategory":1,"la1":30.2991,"la2":30.254,"lo1":-89.0895,"lo2":-89.0444,"dy":0.0017,"dx":0.0017,"nx":28,"ny":28,"refTime":"2023-07-21T03:00:00:Z","depth":0,"parameterNumber":3,"parameterNumberName":"V-component_of_WINDS"},"data":[0,0,0,0,0,0,0,0,0,0,0,0,0,0,0,0,0,0,0,0,0,0,0,0,0,0,0,0,0,0,0,0,0,0,0,0,0,0,0,0,0,0,0,0,0,0,0,0,0,0,0,0,0,0,0,0,0,0,3.7295,3.7294,0,3.7221,3.722,3.7219,3.7182,3.7182,3.7182,3.7182,3.7099,3.7097,3.7094,0,0,0,0,0,0,0,0,0,0,0,0,0,3.7397,3.7395,3.7295,3.7294,3.7293,3.7221,3.722,3.7219,3.7182,3.7182,3.7182,3.7182,3.7099,3.7097,3.7094,0,0,0,0,0,0,0,0,0,0,0,0,0,3.7341,3.7395,3.7295,3.7266,3.7263,3.7221,3.722,3.7219,3.7182,3.7182,3.7182,3.7182,3.71,3.7097,3.7094,3.7074,0,0,3.7084,3.7082,0,0,0,0,0,0,0,0,3.7344,3.7337,3.7271,3.7268,3.7264,3.7211,3.7226,3.717,3.7182,3.7212,3.7182,3.7182,3.7136,3.7129,3.7115,3.707,3.7066,3.7084,3.7082,3.708,3.7079,0,0,0,0,0,0,0,3.7348,3.734,3.7265,3.727,3.7266,3.7254,3.7246,3.7215,3.7174,3.721,3.7207,3.7199,3.7134,3.7119,3.7113,3.7065,3.7084,3.7081,3.7079,3.7077,3.6999,3.6998,0,0,0,0,0,0,3.7357,3.7343,3.7268,3.7263,3.7305,3.7253,3.7244,3.7228,3.7175,3.7167,3.7199,3.7197,3.7124,3.7117,3.711,3.7083,3.708,3.7077,3.7075,3.6999,3.6999,3.6998,0,0,0,0,0,0,3.736,3.7351,3.7271,3.7302,3.7291,3.7251,3.7233,3.7226,3.7211,3.7167,3.7159,3.7192,3.7124,3.7115,3.7083,3.7079,3.7076,3.7073,3.6999,3.6999,3.6999,3.7028,0,0,0,0,0,0,3.7363,3.7352,3.7346,3.7303,3.729,3.7248,3.7233,3.7225,3.7207,3.7204,3.7158,3.715,3.7123,3.7089,3.708,3.7075,3.707,3.6999,3.6999,3.6999,3.7027,3.7029,3.7031,0,0,0,0,0,3.7367,3.7355,3.7346,3.7337,3.7281,3.7247,3.724,3.7211,3.7206,3.7198,3.717,3.7152,3.7081,3.7086,3.7076,3.7069,3.6999,3.6999,3.6999,3.7027,3.7029,3.703,0,0,0,0,0,0,3.7396,3.7349,3.7338,3.7313,3.7285,3.7241,3.723,3.7214,3.7185,3.7183,3.7147,3.7137,3.7109,3.7086,3.7092,3.7047,3.7038,3.7036,3.7063,3.7064,3.7066,3.7072,3.7067,0,0,0,0,0,3.74,3.7379,3.7338,3.732,3.7307,3.7271,3.7255,3.7236,3.7204,3.7192,3.7161,3.7129,3.7099,3.7081,3.7051,3.7024,3.7013,3.7014,3.7016,3.7018,3.7016,3.6999,3.6999,3.6998,3.6998,3.6998,0,0,3.7408,3.7379,3.7368,3.7325,3.7301,3.7278,3.7261,3.7237,3.7219,3.7187,3.7156,3.7133,3.7094,3.7065,3.7051,3.7045,3.7014,3.7017,3.7019,3.7016,3.6999,3.6999,3.6999,3.6997,3.6997,3.6997,0,0,3.7409,3.7386,3.7369,3.7345,3.731,3.7287,3.7283,3.7242,3.7226,3.7195,3.717,3.7147,3.7097,3.7071,3.7051,3.7044,3.7025,3.7035,3.7042,3.7027,3.7027,3.7027,3.7023,3.7022,3.7033,3.7033,3.7033,0,3.7422,3.7388,3.7361,3.7339,3.732,3.7293,3.7274,3.7252,3.7207,3.7194,3.7189,3.7127,3.7099,3.7063,3.7062,3.7047,3.7039,3.7039,3.7029,3.7029,3.7028,3.7025,3.7023,3.7035,3.7034,3.7034,3.7034,0,3.7406,3.7383,3.7372,3.7333,3.7313,3.7293,3.726,3.7243,3.7225,3.7202,3.717,3.7136,3.7099,3.7089,3.7071,3.705,3.7048,3.7037,3.7027,3.703,3.7026,3.7025,3.7037,3.7036,3.7036,3.7035,0,0,3.7423,3.737,3.7367,3.7349,3.7308,3.7288,3.7266,3.7232,3.7218,3.7188,3.7167,3.7127,3.7116,3.7094,3.7072,3.7058,3.7053,3.7048,3.7046,3.705,3.7028,3.7037,3.7035,3.7041,3.7041,3.7041,3.7031,0,3.7418,3.738,3.7354,3.7324,3.7302,3.7276,3.7256,3.7227,3.7205,3.7181,3.7154,3.7126,3.7115,3.7101,3.7086,3.7057,3.7048,3.7057,3.7019,3.7018,3.703,3.7033,3.7042,3.7035,3.7029,3.7029,3.7029,0,3.7408,3.7382,3.7351,3.7313,3.7302,3.7285,3.7252,3.723,3.7197,3.7181,3.7157,3.7135,3.7108,3.7102,3.7063,3.707,3.7053,3.7036,3.7035,3.7029,3.7023,3.7027,3.7032,3.7031,3.7026,3.7026,3.7026,0,3.7423,3.738,3.7356,3.7341,3.7296,3.7285,3.7265,3.7232,3.7214,3.7184,3.7171,3.7138,3.712,3.7094,3.7063,3.7061,3.7027,3.7018,3.7011,3.7012,3.7005,3.7005,3.7006,3.6995,3.6995,3.6995,3.6995,0,3.7421,3.7402,3.7362,3.7347,3.7325,3.7296,3.7274,3.7252,3.7223,3.7201,3.7176,3.7156,3.7117,3.7091,3.7066,3.7038,3.7029,3.7014,3.7008,3.7016,3.7018,3.7004,3.7003,3.6994,3.6994,3.6995,3.6995,0,3.7434,3.7407,3.7378,3.7339,3.7329,3.7314,3.7279,3.7263,3.7239,3.7212,3.7204,3.7166,3.7135,3.7102,3.7058,3.7042,3.7014,3.7005,3.7026,3.7022,3.7017,3.7018,3.7008,3.7005,3.6997,3.6997,3.6997,0,3.7434,3.742,3.7379,3.7365,3.7346,3.7322,3.7304,3.7274,3.7255,3.7216,3.7204,3.7171,3.7144,3.7094,3.7061,3.7028,3.7018,3.7017,3.7012,3.7021,3.7017,3.7018,3.7016,3.7018,3.7018,3.7018,3.7018,0,3.7436,3.7424,3.74,3.7371,3.735,3.7325,3.7299,3.7288,3.7252,3.7232,3.7201,3.718,3.7137,3.7104,3.7067,3.7044,3.7024,3.702,3.7017,3.7025,3.7037,3.703,3.7029,3.702,3.702,3.702,3.702,3.702,3.7442,3.7428,3.7398,3.7372,3.735,3.7326,3.7309,3.7284,3.7259,3.7223,3.7206,3.7175,3.7141,3.7089,3.7067,3.7041,3.7035,3.703,3.7028,3.7028,3.703,3.7043,3.7033,3.7033,3.7033,3.7033,3.7033,0,3.7443,3.7423,3.7399,3.7365,3.7344,3.733,3.7301,3.7283,3.7257,3.7228,3.7202,3.7166,3.7135,3.71,3.7065,3.7051,3.7041,3.7043,3.7043,3.7038,3.7037,3.7043,3.7051,3.7051,3.7051,3.7051,3.7051,3.7051,3.7441,3.7417,3.7401,3.7364,3.7343,3.7315,3.7299,3.7276,3.7253,3.7215,3.719,3.7169,3.7137,3.71,3.7069,3.706,3.7048,3.7052,3.704,3.7039,3.7038,3.7037,3.7042,3.705,3.705,3.7043,3.7043,3.7043]}]]